SL-14 DEB, 45653

Orbit data source: Space-Track

SL-14 DEB, 45653 is space debris in LEO originally from a launch on Thu, 15 Aug 1991 UTC launched from the Plesetsk Missile And Space Complex (PKMTR). Debris objects in space refer to the collection of defunct objects orbiting the Earth. Examples of debris include non-operational satellites, rocket bodies, and fragments generated from explosions, collisions, or faulty payload assembly.

Loading next visibility...
Identifier
45653, 1991-056CX
Orbit
LEO
Country
Flag of CISCIS
Related business
Manufacturer
Unknown
Mission
Spacecraft
Bus & Motor
Unknown
Mass
Unknown
Launch date (UTC)
1991-08-15 (34 years ago)
Launch vehicle
Unknown
Launch site
Plesetsk Missile And Space Complex (PKMTR)
Object type
Payload
Rocket body
Debris
Shape & HBR
Unknown shape, 0.1 m
Radar Cross Section
Small (<0.1 m²)

Expand to show TLE details & history
Last TLE update: 1 day ago

TLE from 1 day ago
0 SL-14 DEB
1 45653U 91056CX  26037.39559357  .00001612  00000-0  30896-2 0  9996
2 45653  82.5577 189.8217 0075272 256.6620 102.6113 13.35754326286284
Epoch: 2026-02-06T09:29Z
TLE epoch observation values (Epoch: 2026-02-06T09:29:39.284Z)
Latitude
0.00004°
Longitude
-89.12606°
Altitude
1,140.708 km
Speed
7.276 km/s
True Right ascension
12h 39m 17s
True Declination
0° 00' 00"
Sunlit
Object was in full shadow at epoch
Visualization orbit readout
Latitude
Unknown
Longitude
Unknown
Altitude
Unknown
Speed
Unknown
Apparent Right ascension
Unknown
Apparent Declination
Unknown
Sunlit
N/A
Visualization observer readout
Local Sidereal Time
13:49:19
Azimuth
Unknown
Elevation
Unknown
Doppler factor
Unknown
Orbital elements
Apogee altitude
1,178.812 km
Perigee altitude
1,065.897 km
Semi-major axis
7,500.492 km
Eccentricity
0.00753
Inclination
82.5577°
RAAN
189.8217°
Arg. of periapsis
256.662°
True anomaly
103.45129°
Mean anomaly
102.6113°
Eccentric anomaly
103.03147°
Mean motion
3.34125 °/min
Orbital period
107.74 mins
BSTAR
0.0030896
Loading maneuver chart data...
Computing Atmospheric mass density...
Loading historical data...
Loading historical data...
Loading historical data...
Loading historical data...
Loading historical data...
Loading historical data...
Loading historical data...

Documentation

Showing up to 5 results
|